Miscellaneous Local Product
Issued by NWS North Platte, NE

Home | Current Version | Previous Version | Graphics & Text | Print | Product List | Glossary On
Versions: 1 2 3 4 5 6 7 8 9 10 11 12 13 14 15 16 17 18 19 20 21 22 23 24 25 26 27 28 29 30 31 32 33 34 35 36 37 38 39 40 41 42 43 44 45 46 47 48 49 50
000
AXUS43 KLBF 220310
MISLBF


WESTERN AND NORTH CENTRAL NEBRASKA HOURLY WEATHER ROUNDUP
NATIONAL WEATHER SERVICE NORTH PLATTE NE
1000 PM CDT THU SEP 21 2017

NOTE: "FAIR" INDICATES FEW OR NO CLOUDS BELOW 12,000 FEET WITH NO
SIGNIFICANT WEATHER AND/OR OBSTRUCTIONS TO VISIBILITY.

NOTE: STATIONS NOT REPORTING VARIABLES SUCH AS SKY/WEATHER OR
PRESSURE ARE PROVIDED BY RAWS AND APRS NETWORKS AND ARE NOT UNDER
NATIONAL WEATHER SERVICE QUALITY CONTROL.

...OBSERVATIONS IN AND NEAR THE EASTERN PANHANDLE OF NEBRASKA...

CITY           SKY/WX    TMP DP  RH WIND       PRES   REMARKS
PINE RIDGE     CLEAR     70  40  33 N17       29.66S
GORDON         FAIR      59  46  61 CALM      29.66R
CHADRON        CLEAR     66  37  34 NE12      29.66R
ALLIANCE       CLEAR     62  44  51 E10       29.64S
SIDNEY         CLEAR     61  32  33 S9        29.66S
CRESCENT LAKE    N/A     68  45  43 SE5G16      N/A
$$

...OBSERVATIONS IN NORTHERN NEBRASKA AND FAR SOUTHERN SOUTH DAKOTA...

CITY           SKY/WX    TMP DP  RH WIND       PRES   REMARKS
WINNER         FAIR      68  59  73 E7        29.63S
VALENTINE      CLEAR     76  51  41 NE7       29.63F
THEDFORD       CLEAR     73  46  38 SE12      29.66S
AINSWORTH      CLEAR     74  62  67 SE10      29.64F
O`NEILL        CLEAR     81  68  64 SE17G23   29.67S
ORD            CLEAR     81  64  56 SE13      29.66S
BROKEN BOW     CLEAR     72  49  44 SE9       29.67R
VALENTINE NWR    N/A     69  53  57 E6          N/A
HALSEY           N/A     76  44  31 SE8         N/A
BUTTE            N/A     76  68  77 SE10        N/A
CHAMBERS         N/A     78  67  68 S5          N/A
EWING            N/A     80  70  70 SE7         N/A
$$

...OBSERVATIONS IN SOUTHWEST NEBRASKA AND FAR NORTHEAST COLORADO...

CITY           SKY/WX    TMP DP  RH WIND       PRES   REMARKS
WRAY           FAIR      73  32  21 S10       29.65S
HOLYOKE        FAIR      64  36  34 S9        29.65R
IMPERIAL       CLEAR     77  34  21 SE16      29.64R
OGALLALA       CLEAR     77  42  28 SE13G18   29.63R
NORTH PLATTE   CLEAR     83  41  22 SE14G21   29.64R
MCCOOK           N/A     82  42  24 S15       29.65R
LEXINGTON      CLEAR     72  45  37 S8        29.68R
STAPLETON        N/A     73  45  37 CALM        N/A
GOTHENBURG       N/A     81  41  23 SE3         N/A
CALLAWAY         N/A     66  55  69 SE6         N/A
$$

...OBSERVATIONS IN CENTRAL LINCOLN COUNTY AREA...

CITY           SKY/WX    TMP DP  RH WIND       PRES   REMARKS
N.P. AIRPORT   CLEAR     83  41  22 SE14G21   29.64R
N.P. DOWNTOWN    N/A     82  45  26 S3G12       N/A
N.P. SOUTHEAST   N/A     81  44  26 S8G15       N/A
N.P. HILLCREST   N/A     80  45  28 S12         N/A
$$

...SOME OBSERVATIONS FROM AROUND THE REGION...

CITY           SKY/WX    TMP DP  RH WIND       PRES   REMARKS
DENVER         CLEAR     75  21  13 S18       29.70R
LIMON          CLEAR     69  25  19 S13       29.75S
ASPEN          CLEAR     49  29  46 CALM      29.89S
LARAMIE        CLEAR     56  21  25 SE10      29.83R
CASPER         CLEAR     47  39  74 NE17      29.82R
CHEYENNE       CLOUDY    63  28  26 NE5       29.74S
SCOTTSBLUFF    CLEAR     63  45  51 SE3       29.63R
GRAND ISLAND   CLEAR     82  71  69 SE15G23   29.71R
OMAHA          CLEAR     84  72  67 S16       29.78R
SIOUX FALLS    CLEAR     81  73  76 S13       29.72R
PIERRE         CLEAR     69  54  58 NE6       29.62S
BISMARCK       CLEAR     63  46  54 N12       29.77R
KANSAS CITY    CLEAR     82  72  71 S18G25    29.88R
HILL CITY      CLEAR     86  61  42 S16G23    29.70R
WICHITA        CLEAR     83  73  72 S20G26    29.83R
DODGE CITY     CLEAR     84  67  56 S31G41    29.77R
OKLAHOMA CITY  PTCLDY    81  68  64 S16G22    29.88R
DALLAS         CLEAR     84  69  60 S14       29.90R
AMARILLO       CLEAR     76  52  43 SE14      29.89R
$$




USA.gov is the U.S. government's official web portal to all federal, state and local government web resources and services.